Weather in Terekhovka

Russia / Primorsky Krai     43°38′26″N   131°55′07″E
temp.,
°C
wind,
m/s
gust,
m/s
humid.,
%
clouds,
%
prec.,
mm/h
press.,
hPa
HPBL,
m
15 august, mon
mon1501:00+18se118434 0.0 100511
04:00+18s1184100 0.0 100413
07:00+17s1194100 0.5 100419
10:00+19s2595100 1.1 1003417
13:00+19nne1194100 0.1 1002170
16:00+19nne2497100 0.4 1000224
19:00+18nne1298100 2.9 100063
22:00+17nw119797 4.6 100124
16 august, tue
tue1601:00+17nnw259898 0.0 1000157
04:00+16nnw349698 0.0 1000128
07:00+16nw2597100 0.1 1001174
10:00+19n4790100 0.4 1002613
13:00+24nne6767100 0.1 10021233
16:00+25nne566228 0.2 10031161
19:00+23nne24790 0.1 1004183
22:00+18ssw11880 0.1 100611
17 august, wed
wed1701:00+17s11910 0.0 100711
04:00+16s11930 0.0 100711
07:00+16sse11930 0.0 100911
10:00+22w11730 0.0 1009375
13:00+26nnw11570 0.0 1009814
16:00+28nnw21490 0.0 10081336
19:00+23s58760 0.0 1008323
22:00+19sse49950 0.0 1009204
18 august, thu
thu1801:00+18sse37974 0.0 1009190
04:00+17sse36988 0.0 1010136
07:00+17sse26978 0.0 1009146
10:00+22s467713 0.0 1009701
13:00+26s676242 0.0 10071257
16:00+25s7966100 0.0 10061079
19:00+22s61183100 0.0 1006658
22:00+20s61290100 0.0 1007590
19 august, fri
fri1901:00+20s61290100 0.0 1005625
04:00+20s61290100 0.2 1004629
07:00+19s51198100 2.1 1004522
10:00+20s41097100 4.3 1004493
13:00+20s4895100 0.8 1004422
16:00+21s469166 4.1 1003301
19:00+21s479342 3.9 1003298
22:00+19sse369764 4.2 1004162